Livermore, CA

7:49 AM PDT on May 23, 2017 (GMT -0700)
Livermore Municipal

Weather History for KLVK - March, 2013

Change the Weather History Date:

Friday, March 15, 2013

  Actual Average Record
Temperature  
Mean Temperature 58 °F 54 °F  
Max Temperature 73 °F 65 °F 83 °F (1972)
Min Temperature 42 °F 42 °F 29 °F (1944)
Degree Days  
Heating Degree Days 7 11  
Month to date heating degree days 152 179  
Since 1 July heating degree days 2092 2186  
Cooling Degree Days 0 0  
Month to date cooling degree days 0 0  
Year to date cooling degree days 0 0  
Growing Degree Days 8 (Base 50)    
Moisture  
Dew Point 45 °F    
Average Humidity 72    
Maximum Humidity 89    
Minimum Humidity 55    
Precipitation  
Precipitation 0.00 in 0.07 in 0.75 in (1945)
Month to date precipitation 0.16 1.25  
Year to date precipitation 1.28 7.29  
Since 1 July precipitation 9.57  
Sea Level Pressure  
Sea Level Pressure 30.08 in    
Wind  
Wind Speed 3 mph (WNW)    
Max Wind Speed 13 mph    
Max Gust Speed 15 mph    
Visibility 10 miles    
Events      
T = Trace of Precipitation, MM = Missing Value Source: NWS Daily Summary

Daily Weather History Graph

Daily Weather History Graph

Search for Another Location

Airport or City:

Trip Planner

Search our weather history database for the weather conditions in past years. The results will help you decide how hot, cold, wet, or windy it might be!

Date:

Astronomy

Mar. 15, 2013 Rise Set
Actual Time 7:17 AM PDT 7:14 PM PDT
Civil Twilight 6:51 AM PDT 7:40 PM PDT
Nautical Twilight 6:21 AM PDT 8:11 PM PDT
Astronomical Twilight 5:50 AM PDT 8:42 PM PDT
Moon 9:16 AM PDT (3/15) 11:28 PM PDT (3/15)
Length of Visible Light 12h 49m
Length of Day
11h 57m
Waxing Crescent, 16% of the Moon is Illuminated
Mar 15
Waxing Crescent
Mar 19
First Quarter
Mar 27
Full
Apr 2
Last Quarter
Apr 10
New

Hourly Weather History & Observations

Time (PDT) Temp. Windchill Dew Point Humidity Pressure Visibility Wind Dir Wind Speed Gust Speed Precip Events Conditions
12:53 AM 50.0 °F - 43.0 °F 77% 30.11 in 10.0 mi NE 3.5 mph - N/A   Clear
1:53 AM 48.9 °F - 43.0 °F 80% 30.12 in 10.0 mi Calm Calm - N/A   Clear
2:53 AM 48.0 °F - 42.1 °F 80% 30.12 in 10.0 mi Calm Calm - N/A   Clear
3:53 AM 45.0 °F - 41.0 °F 86% 30.11 in 10.0 mi Calm Calm - N/A   Clear
4:53 AM 46.0 °F 44.8 °F 41.0 °F 83% 30.11 in 10.0 mi South 3.5 mph - N/A   Clear
5:53 AM 46.0 °F - 41.0 °F 83% 30.11 in 10.0 mi Calm Calm - N/A   Clear
6:53 AM 46.0 °F - 39.9 °F 79% 30.11 in 10.0 mi Calm Calm - N/A   Clear
7:53 AM 46.9 °F - 41.0 °F 80% 30.11 in 10.0 mi Calm Calm - N/A   Clear
8:53 AM 50.0 °F - 44.1 °F 80% 30.12 in 10.0 mi Calm Calm - N/A   Clear
9:53 AM 54.0 °F - 42.1 °F 64% 30.12 in 10.0 mi Calm Calm - N/A   Clear
10:53 AM 55.9 °F - 45.0 °F 67% 30.12 in 10.0 mi Calm Calm - N/A   Clear
11:53 AM 60.1 °F - 44.1 °F 55% 30.12 in 10.0 mi Calm Calm - N/A   Clear
12:53 PM 63.0 °F - 46.0 °F 54% 30.10 in 10.0 mi Calm Calm - N/A   Clear
1:53 PM 66.9 °F - 46.9 °F 49% 30.08 in 10.0 mi Calm Calm - N/A   Clear
2:53 PM 71.1 °F - 48.0 °F 44% 30.06 in 10.0 mi Calm Calm - N/A   Clear
3:53 PM 72.0 °F - 53.1 °F 51% 30.04 in 10.0 mi West 9.2 mph - N/A   Clear
4:53 PM 71.1 °F - 50.0 °F 47% 30.04 in 10.0 mi West 9.2 mph - N/A   Clear
5:53 PM 68.0 °F - 46.9 °F 47% 30.04 in 10.0 mi West 5.8 mph - N/A   Clear
6:53 PM 64.0 °F - 48.0 °F 56% 30.04 in 10.0 mi NW 6.9 mph - N/A   Clear
7:53 PM 61.0 °F - 48.0 °F 62% 30.04 in 10.0 mi NW 3.5 mph - N/A   Clear
8:53 PM 59.0 °F - 48.0 °F 67% 30.04 in 10.0 mi Calm Calm - N/A   Clear
9:53 PM 57.9 °F - 46.9 °F 67% 30.05 in 10.0 mi NW 3.5 mph - N/A   Clear
10:53 PM 55.0 °F - 48.0 °F 77% 30.06 in 10.0 mi WNW 8.1 mph - N/A   Clear
11:53 PM 52.0 °F - 48.9 °F 89% 30.06 in 10.0 mi NW 5.8 mph - N/A   Clear